Overview Statistics Trail Chart Weather Telemetry Raw packets
 

This is the latest recevied weather packets stored in our database for station/object F4NFR-13. If no packets are shown the sender has not sent any weather packets the latest 10 day(s).

<< 10 11 12 13 14 15 16 >>
Time Temp. Humidity Pressure Rain* Wind** Luminosity Snow
1778136572 12.78° C 73% 1017.4 hPa 0 mm - 0 W/m² -
1778136270 12.78° C 73% 1017.4 hPa 0 mm - 320 W/m² -
1778135968 12.22° C 77% 1017.4 hPa 0 mm - 281 W/m² -
1778135665 12.22° C 81% 1017.4 hPa 0 mm - 252 W/m² -
1778135362 11.11° C 84% 1017.4 hPa 0 mm - 202 W/m² -
1778135060 11.11° C 86% 1017.4 hPa 0 mm - 203 W/m² -
1778134758 10° C 89% 1017.4 hPa 0 mm - 162 W/m² -
1778134456 10° C 90% 1017.4 hPa 0 mm - 147 W/m² -
1778134153 8.89° C 92% 1017.4 hPa 0 mm - 115 W/m² -
1778133851 8.89° C 94% 1017.4 hPa 0 mm - 92 W/m² -
1778133548 8.89° C 94% 1017.4 hPa 0 mm - 79 W/m² -
1778133246 7.78° C 94% 1017.4 hPa 0 mm - 71 W/m² -
1778132943 7.78° C 94% 1017.4 hPa 0 mm - 65 W/m² -
1778132641 7.78° C 95% 1017.1 hPa 0 mm - 59 W/m² -
1778132036 7.78° C 96% 1017.1 hPa 0 mm - 53 W/m² -
1778131432 7.22° C 96% 1017.1 hPa 0 mm - 44 W/m² -
1778131129 7.22° C 96% 1017.1 hPa 0 mm - 40 W/m² -
1778130827 7.22° C 96% 1017.1 hPa 0 mm - 36 W/m² -
1778130524 7.22° C 96% 1017.1 hPa 0 mm - 34 W/m² -
1778130222 7.22° C 96% 1017.1 hPa 0 mm - 29 W/m² -
1778129919 7.22° C 96% 1017.1 hPa 0 mm - 26 W/m² -
1778129616 6.11° C 96% 1017.1 hPa 0 mm - 23 W/m² -
1778129314 6.11° C 96% 1016.7 hPa 0 mm - 19 W/m² -
1778129012 6.11° C 97% 1016.7 hPa 0 mm - 15 W/m² -
1778128407 5° C 96% 1016.7 hPa 0 mm - 8 W/m² -

* Rain latest hour (hover to see other rain measurements)
** Current wind speed in m/s (hover to see current wind gust speed)